Weather History for KMCB - April, 2014

Change the Weather History Date:

Monday, April 7, 2014

  Actual Average Record
Temperature  
Mean Temperature 62 °F -  
Max Temperature 71 °F 75 °F 88 °F (1986)
Min Temperature 52 °F 50 °F 32 °F (1971)
Degree Days  
Heating Degree Days 2    
Growing Degree Days 12 (Base 50)    
Moisture  
Dew Point 61 °F    
Average Humidity 87    
Maximum Humidity 97    
Minimum Humidity 53    
Precipitation  
Precipitation 0.74 in - - ()
Sea Level Pressure  
Sea Level Pressure 29.70 in    
Wind  
Wind Speed 12 mph (SW)    
Max Wind Speed 17 mph    
Max Gust Speed 30 mph    
Visibility 8 miles    
Events Rain , Thunderstorm    
Averages and records for this station are not official NWS values.
T = Trace of Precipitation, MM = Missing Value Source: NWS Daily Summary

Daily Weather History Graph

Daily Weather History Graph

Search for Another Location

Airport or City:

Trip Planner

Search our weather history database for the weather conditions in past years. The results will help you decide how hot, cold, wet, or windy it might be!

Date:

Astronomy

Apr. 07, 2014 Rise Set
Actual Time 6:43 AM CDT 7:25 PM CDT
Civil Twilight 6:18 AM CDT 7:49 PM CDT
Nautical Twilight 5:49 AM CDT 8:18 PM CDT
Astronomical Twilight 5:20 AM CDT 8:48 PM CDT
Moon 12:49 PM CDT (4/7) 1:52 AM CDT (4/7)
Length of Visible Light 13h 30m
Length of Day
12h 41m
First Quarter, 53% of the Moon is Illuminated
Apr 7
First Quarter
Apr 15
Full
Apr 22
Last Quarter
Apr 29
New
May 6
First Quarter

Hourly Weather History & Observations

Time (CDT) Temp. Dew Point Humidity Pressure Visibility Wind Dir Wind Speed Gust Speed Precip Events Conditions
12:08 AM 72.0 °F 70.0 °F 93% 29.64 in 5.0 mi South 16.1 mph 24.2 mph 0.01 in Rain , Thunderstorm Light Rain
12:18 AM 72.0 °F 70.0 °F 93% 29.61 in 5.0 mi South 17.3 mph 28.8 mph 0.03 in Rain , Thunderstorm Thunderstorms and Rain
12:33 AM 72.0 °F 70.0 °F 93% 29.63 in 8.0 mi South 13.8 mph 24.2 mph 0.04 in Rain , Thunderstorm Light Rain
12:40 AM 72.0 °F 70.0 °F 93% 29.61 in 3.0 mi South 15.0 mph 24.2 mph 0.09 in Rain Heavy Rain
12:43 AM 72.0 °F 69.1 °F 91% 29.61 in 3.0 mi South 15.0 mph 24.2 mph 0.10 in Rain , Thunderstorm Heavy Rain
12:46 AM 71.1 °F 69.1 °F 93% 29.60 in 1.8 mi South 15.0 mph 25.3 mph 0.17 in Rain , Thunderstorm Heavy Thunderstorms and Rain
12:48 AM 71.6 °F 69.8 °F 94% 29.59 in 2.0 mi South 13.8 mph 25.3 mph 0.19 in Rain , Thunderstorm Heavy Thunderstorms and Rain
12:53 AM 71.1 °F 69.1 °F 93% 29.57 in 2.0 mi South 12.7 mph 25.3 mph 0.20 in Rain , Thunderstorm Thunderstorms and Rain
1:00 AM 71.1 °F 68.0 °F 90% 29.61 in 9.0 mi SSW 12.7 mph 24.2 mph 0.00 in Rain , Thunderstorm Light Thunderstorms and Rain
1:13 AM 70.0 °F 68.0 °F 93% 29.65 in 9.0 mi SW 11.5 mph 24.2 mph 0.01 in Rain , Thunderstorm Light Thunderstorms and Rain
1:31 AM 70.0 °F 68.0 °F 93% 29.68 in 2.5 mi West 12.7 mph - 0.08 in Rain , Thunderstorm Heavy Thunderstorms and Rain
1:38 AM 69.1 °F 66.9 °F 93% 29.69 in 2.0 mi SW 13.8 mph 27.6 mph 0.17 in Rain , Thunderstorm Heavy Thunderstorms and Rain
1:42 AM 69.1 °F 66.9 °F 93% 29.69 in 2.0 mi SSW 15.0 mph 29.9 mph 0.20 in Rain , Thunderstorm Heavy Thunderstorms and Rain
1:45 AM 69.1 °F 66.9 °F 93% 29.67 in 2.0 mi SW 11.5 mph 29.9 mph 0.21 in Rain , Thunderstorm Heavy Thunderstorms and Rain
1:49 AM 69.8 °F 66.2 °F 88% 29.67 in 3.0 mi SW 10.4 mph 29.9 mph 0.22 in Rain , Thunderstorm Thunderstorms and Rain
1:53 AM 69.1 °F 66.9 °F 93% 29.68 in 4.0 mi WSW 8.1 mph 19.6 mph 0.23 in Rain , Thunderstorm Thunderstorms and Rain
2:00 AM 69.1 °F 66.9 °F 93% 29.68 in 6.0 mi SSW 10.4 mph - 0.01 in Rain , Thunderstorm Light Thunderstorms and Rain
2:04 AM 69.1 °F 66.9 °F 93% 29.68 in 9.0 mi SW 9.2 mph - 0.01 in Rain , Thunderstorm Light Rain
2:38 AM 66.9 °F 64.9 °F 93% 29.66 in 10.0 mi South 6.9 mph - 0.02 in   Overcast
2:53 AM 66.9 °F 64.9 °F 93% 29.65 in 5.0 mi South 6.9 mph - 0.05 in Rain Rain
3:03 AM 66.0 °F 64.9 °F 96% 29.65 in 2.5 mi SSW 5.8 mph - 0.10 in Rain , Thunderstorm Heavy Thunderstorms and Rain
3:06 AM 66.0 °F 64.9 °F 96% 29.65 in 1.8 mi SSW 5.8 mph - 0.14 in Rain , Thunderstorm Heavy Thunderstorms and Rain
3:17 AM 66.0 °F 64.9 °F 96% 29.65 in 1.8 mi South 4.6 mph - 0.23 in Rain , Thunderstorm Thunderstorms and Rain
3:19 AM 66.0 °F 64.9 °F 96% 29.65 in 3.0 mi South 8.1 mph - 0.24 in Rain , Thunderstorm Light Rain
3:26 AM 66.9 °F 64.9 °F 93% 29.64 in 4.0 mi SSW 6.9 mph - 0.25 in Rain , Thunderstorm Light Rain
3:45 AM 66.9 °F 64.9 °F 93% 29.65 in 10.0 mi SSE 11.5 mph - 0.25 in Thunderstorm Thunderstorm
3:49 AM 66.2 °F 64.4 °F 94% 29.64 in 10.0 mi SSE 11.5 mph - 0.25 in Thunderstorm Thunderstorm
3:53 AM 66.9 °F 66.0 °F 97% 29.64 in 10.0 mi South 13.8 mph - 0.25 in Thunderstorm Thunderstorm
4:00 AM 66.9 °F 64.9 °F 93% 29.65 in 10.0 mi South 10.4 mph 20.7 mph 0.00 in Rain , Thunderstorm Light Thunderstorms and Rain
4:11 AM 66.0 °F 64.9 °F 96% 29.64 in 10.0 mi South 9.2 mph - 0.00 in   Overcast
4:30 AM 66.0 °F 64.9 °F 96% 29.65 in 10.0 mi South 11.5 mph - 0.00 in Thunderstorm Overcast
4:39 AM 66.0 °F 64.0 °F 93% 29.66 in 10.0 mi South 10.4 mph - 0.00 in Thunderstorm Overcast
4:49 AM 66.2 °F 64.4 °F 94% 29.63 in 7.0 mi Calm Calm - 0.01 in Rain Light Rain
4:53 AM 66.0 °F 64.0 °F 93% 29.62 in 10.0 mi SW 3.5 mph 17.3 mph 0.01 in Rain Light Rain
5:02 AM 66.0 °F 64.0 °F 93% 29.66 in 10.0 mi South 9.2 mph - 0.00 in Thunderstorm Thunderstorm
5:11 AM 66.0 °F 64.0 °F 93% 29.68 in 10.0 mi South 13.8 mph - 0.00 in Thunderstorm Overcast
5:24 AM 66.0 °F 64.0 °F 93% 29.66 in 10.0 mi Calm Calm - 0.00 in Rain Light Rain
5:31 AM 66.0 °F 64.0 °F 93% 29.69 in 10.0 mi SSW 6.9 mph - 0.00 in Rain Light Rain
5:38 AM 66.0 °F 64.0 °F 93% 29.70 in 10.0 mi South 11.5 mph - 0.00 in   Overcast
5:53 AM 66.0 °F 64.0 °F 93% 29.69 in 10.0 mi SW 5.8 mph - 0.00 in   Overcast
6:38 AM 61.0 °F 60.1 °F 97% 29.71 in 5.0 mi West 11.5 mph 23.0 mph N/A   Overcast
6:53 AM 61.0 °F 60.1 °F 97% 29.72 in 10.0 mi WNW 16.1 mph 23.0 mph N/A   Overcast
7:53 AM 57.9 °F 55.0 °F 90% 29.72 in 10.0 mi WNW 13.8 mph - N/A   Mostly Cloudy
8:33 AM 57.9 °F 55.0 °F 90% 29.74 in 10.0 mi WNW 13.8 mph - N/A   Partly Cloudy
8:53 AM 57.0 °F 54.0 °F 89% 29.75 in 10.0 mi WNW 15.0 mph - N/A   Mostly Cloudy
9:53 AM 55.9 °F 53.1 °F 90% 29.76 in 10.0 mi West 15.0 mph 18.4 mph N/A   Overcast
10:33 AM 55.9 °F 51.1 °F 84% 29.79 in 10.0 mi NW 16.1 mph 23.0 mph N/A   Overcast
10:53 AM 55.0 °F 52.0 °F 89% 29.79 in 10.0 mi West 13.8 mph 18.4 mph N/A   Overcast
11:53 AM 57.0 °F 51.1 °F 81% 29.78 in 10.0 mi NNW 10.4 mph 17.3 mph N/A   Overcast
12:23 PM 59.0 °F 51.1 °F 75% 29.79 in 10.0 mi Variable 5.8 mph - N/A   Mostly Cloudy
12:53 PM 61.0 °F 52.0 °F 72% 29.79 in 10.0 mi Variable 6.9 mph 16.1 mph N/A   Mostly Cloudy
1:15 PM 63.0 °F 52.0 °F 67% 29.78 in 10.0 mi NW 6.9 mph - N/A   Scattered Clouds
1:53 PM 64.9 °F 51.1 °F 61% 29.76 in 10.0 mi NW 13.8 mph - N/A   Partly Cloudy
2:53 PM 66.9 °F 51.1 °F 57% 29.76 in 10.0 mi NW 15.0 mph - N/A   Clear
3:53 PM 69.1 °F 51.1 °F 53% 29.76 in 10.0 mi NW 12.7 mph - N/A   Partly Cloudy
4:53 PM 68.0 °F 51.1 °F 55% 29.77 in 10.0 mi NW 11.5 mph - N/A   Partly Cloudy
5:53 PM 66.0 °F 50.0 °F 56% 29.79 in 10.0 mi NNW 12.7 mph - N/A   Clear
6:53 PM 63.0 °F 48.9 °F 60% 29.82 in 10.0 mi NNW 15.0 mph - N/A   Mostly Cloudy
7:53 PM 57.9 °F 48.9 °F 72% 29.86 in 10.0 mi NNW 9.2 mph - N/A   Overcast
8:53 PM 55.9 °F 48.9 °F 77% 29.89 in 10.0 mi NNW 5.8 mph - N/A   Scattered Clouds
9:53 PM 55.9 °F 50.0 °F 80% 29.92 in 10.0 mi NNW 4.6 mph - N/A   Mostly Cloudy
10:53 PM 53.1 °F 48.9 °F 86% 29.93 in 10.0 mi Calm Calm - N/A   Clear
11:53 PM 52.0 °F 50.0 °F 93% 29.93 in 10.0 mi NNW 3.5 mph - N/A   Clear